Location: Ravensburg
(47.7866°N, 9.6124°E)
Time: 10:03:51
(UTC+02:00)

STARS - Pass Details

Date: 22 March 2026
Orbit: 575 x 588 km, 98.2° (Epoch: 18 April)

Event Time Altitude Azimuth Distance (km) Brightness Sun altitude
Rises 02:17:58 0° 16° (NNE) 2,799 ? -36.1°
Reaches altitude 10° 02:20:09 10° 20° (NNE) 1,896 ? -35.9°
Enters shadow 02:20:51 15° 22° (NNE) 1,608 ? -35.8°
